EDW334A LSZH-LGKL

Flight info

Callsign EDW334A
Flight time N/A
Altitude 33000
Route DEGES Z2 XEBIX L607 ELMEM N606 GIRIS DCT NIVAS DCT PEVAL DCT IPKIS DCT AIOSA DCT NOSTO UL612 TRL Y115 IPTAG
Aircraft A320/M-SDE2E3FGHIJ1RWXY/LB1

Departure

Time 2026-05-06 07:43
Airport Zürich Airport (LSZH)

Arrival

Time N/A
Airport Kalamata Airport (LGKL)
Time Latitude Longitude Altitude Speed Heading
2026-05-06 07:13 47.45344 8.55754 1407 ft 0 kts
2026-05-06 07:34 47.45335 8.55753 1407 ft 4 kts
2026-05-06 07:34 47.45313 8.55749 1411 ft 2 kts
2026-05-06 07:34 47.45288 8.55745 1412 ft 4 kts
2026-05-06 07:34 47.45266 8.55748 1407 ft 4 kts 303°
2026-05-06 07:35 47.45261 8.55779 1407 ft 3 kts 276°
2026-05-06 07:35 47.45261 8.55787 1407 ft 0 kts 276°
2026-05-06 07:37 47.45264 8.55737 1410 ft 8 kts 276°
2026-05-06 07:38 47.45271 8.55639 1406 ft 11 kts 275°
2026-05-06 07:38 47.45321 8.55547 1412 ft 14 kts 335°
2026-05-06 07:38 47.45420 8.55478 1412 ft 18 kts 334°
2026-05-06 07:38 47.45520 8.55459 1412 ft 15 kts 54°
2026-05-06 07:39 47.45518 8.55609 1410 ft 15 kts 96°
2026-05-06 07:39 47.45506 8.55778 1411 ft 18 kts 96°
2026-05-06 07:39 47.45492 8.55978 1407 ft 21 kts 96°
2026-05-06 07:39 47.45478 8.56175 1407 ft 15 kts 95°
2026-05-06 07:40 47.45525 8.56301 1411 ft 14 kts 51°
2026-05-06 07:40 47.45588 8.56417 1415 ft 15 kts 57°
2026-05-06 07:40 47.45588 8.56575 1418 ft 16 kts 95°
2026-05-06 07:40 47.45575 8.56745 1421 ft 17 kts 96°
2026-05-06 07:41 47.45563 8.56915 1420 ft 13 kts 96°
2026-05-06 07:41 47.45577 8.56993 1422 ft 11 kts 48°
2026-05-06 07:41 47.45632 8.57023 1425 ft 6 kts
2026-05-06 07:41 47.45663 8.57012 1425 ft 5 kts 281°
2026-05-06 07:42 47.45663 8.57001 1425 ft 0 kts 276°
2026-05-06 07:42 47.45685 8.56704 1419 ft 68 kts 276°
2026-05-06 07:42 47.45757 8.55677 1406 ft 130 kts 276°
2026-05-06 07:42 47.45878 8.54148 1627 ft 155 kts 277°
2026-05-06 07:43 47.45998 8.52596 2310 ft 151 kts 277°
2026-05-06 07:43 47.46103 8.51047 2914 ft 151 kts 276°
2026-05-06 07:43 47.46205 8.49506 3417 ft 152 kts 276°
2026-05-06 07:43 47.46155 8.47959 3889 ft 154 kts 248°
2026-05-06 07:44 47.45550 8.46641 4343 ft 155 kts 236°
2026-05-06 07:44 47.45015 8.45232 4742 ft 164 kts 243°
2026-05-06 07:44 47.44454 8.43637 4973 ft 185 kts 243°
2026-05-06 07:44 47.43825 8.41903 5378 ft 194 kts 234°
2026-05-06 07:45 47.42785 8.40606 5804 ft 207 kts 204°
2026-05-06 07:45 47.41304 8.40398 6128 ft 226 kts 166°
2026-05-06 07:45 47.39989 8.41674 6665 ft 234 kts 127°
2026-05-06 07:45 47.39487 8.43941 7261 ft 239 kts 91°
2026-05-06 07:46 47.39536 8.46416 7829 ft 244 kts 88°
2026-05-06 07:46 47.39613 8.49015 8191 ft 265 kts 88°
2026-05-06 07:46 47.39699 8.51846 8607 ft 284 kts 88°